Location: Unspecified
(0.0000°N, 0.0000°E)
Time: 18:01:51
(UTC+02:00)

Haruka - Visible Passes

Search period start: 25 October 2014 00:00
Search period end: 03 November 2014 23:00
Orbit: 525 x 21254 km, 31.2° (Epoch: 24 October)

Date Brightness Start Highest point End Pass type
(mag) Time Alt. Az. Time Alt. Az. Time Alt. Az.
25 Oct 5.0 06:16:43 10° SSW 06:19:53 26° SE 06:26:11 10° E visible
25 Oct 7.0 23:42:07 10° W 00:39:08 21° SW 00:47:05 16° S visible
27 Oct 7.6 14:24:19 10° NW 18:40:57 87° SW 19:33:50 10° SE visible
28 Oct 7.4 15:44:29 10° NW 20:09:04 67° SW 20:43:21 10° SE visible
29 Oct 7.2 17:13:44 10° NW 21:28:59 46° SW 21:51:51 10° SSE visible
30 Oct 5.1 04:27:49 14° SSE 04:28:44 16° SE 04:31:47 10° E visible
30 Oct 7.0 19:16:35 10° WNW 22:45:02 28° SW 22:59:09 11° SSE visible
31 Oct 3.7 05:33:26 11° SW 05:36:58 62° SE 05:47:14 10° ENE visible
31 Oct 7.1 23:47:34 10° WSW 23:59:41 13° SW 00:04:50 11° SSW visible
02 Nov 7.6 14:46:04 10° NW 19:04:02 74° SW 19:51:41 10° SE visible
03 Nov 7.3 16:08:34 10° NW 20:30:16 54° SW 21:00:43 10° SE visible
